DateTimeUTC,F1_A11,F1_S11,BsB_S11,BsG_S11,BsR_S11,BbsB_S11,BbsG_S11,BbsR_S11,BaB_A11,BaG_A11,BaR_A11,Tu_S11,T_S11,Uu_S11,U_S11,P_S11,T1_A11
2021-10-10T01:00:00Z,00000200,21000000,,,,,,,0000.10,0000.30,0000.33,16.8,24.3,,00.0,0669.8,30.9
2021-10-10T01:01:00Z,00000200,21000000,,,,,,,0000.22,0000.06,0000.12,16.8,24.3,,00.0,0669.8,30.9
2021-10-10T01:02:00Z,00000200,21000000,,,,,,,-000.14,0000.07,0000.04,16.8,24.3,,00.0,0669.8,30.9
2021-10-10T01:03:00Z,00000200,61000000,,,,,,,0000.44,0000.09,0000.19,16.8,24.3,,00.0,0669.8,30.9
2021-10-10T01:04:00Z,00000200,41000000,0000.62,0000.05,-000.05,-000.15,0000.27,-000.09,-000.08,0000.09,0000.01,17.1,24.2,,00.0,0670.8,30.9
2021-10-10T01:05:00Z,00000200,01000000,0000.55,0000.02,0000.02,0000.33,-000.04,-000.30,0000.06,0000.17,-000.05,17.2,24.2,,00.0,0670.8,31.0
2021-10-10T01:06:00Z,00000200,01000000,0001.39,-000.14,-000.06,0001.11,0000.18,-000.03,0000.32,-000.23,0000.20,17.3,24.2,,00.0,0670.8,31.0
2021-10-10T01:07:00Z,00000200,01000000,-000.49,-000.40,0000.35,-000.11,0000.36,0000.13,-000.44,0000.16,-000.34,17.3,24.2,,00.0,0670.8,31.0
2021-10-10T01:08:00Z,00000200,01000000,0000.55,0000.03,-000.03,-000.49,-000.05,-000.12,0000.27,0000.20,0000.32,17.4,24.2,,00.0,0670.8,31.0
2021-10-10T01:09:00Z,00000200,01000000,0000.99,0000.13,-000.18,0000.10,0000.19,-000.12,0000.25,0000.23,0000.27,17.4,24.2,,00.0,0670.9,31.0
2021-10-10T01:10:00Z,00000200,01000000,0000.26,-000.11,-000.08,-000.18,-000.17,0000.16,-000.43,-000.34,-000.44,17.4,24.2,,00.0,0670.9,31.0
2021-10-10T01:11:00Z,00000200,01000000,0001.23,0000.07,-000.08,0000.22,-000.09,0000.01,0000.25,0000.38,0000.45,17.5,24.2,,00.0,0670.9,31.0
2021-10-10T01:12:00Z,00000200,01000000,0001.25,0000.11,0000.14,-000.06,-000.06,0000.11,-000.06,-000.09,-000.55,17.5,24.2,,00.0,0670.8,31.0
2021-10-10T01:13:00Z,00000200,01000000,0000.98,0000.03,-000.27,-000.05,0000.23,0000.09,0000.45,0000.37,0000.74,17.4,24.2,,00.0,0670.9,31.0
2021-10-10T01:14:00Z,00000200,01000000,0000.27,-000.00,0000.23,0000.37,0000.06,0000.25,0000.08,0000.13,-000.30,17.4,24.2,,00.0,0670.9,30.9
2021-10-10T01:15:00Z,00000200,01000000,0000.72,-000.14,0000.14,-000.10,0000.22,-000.02,0000.24,0000.01,-000.01,17.4,24.2,,00.0,0670.8,31.0
2021-10-10T01:16:00Z,00000200,01000000,0000.53,0000.23,-000.23,0000.84,0000.27,-000.20,0000.01,0000.04,0000.52,17.4,24.2,,00.0,0670.8,31.0
2021-10-10T01:17:00Z,00000200,01000000,0000.23,0000.17,0000.05,0000.32,0000.12,-000.17,-000.11,0000.10,-000.26,17.5,24.2,,00.0,0670.8,31.0
2021-10-10T01:18:00Z,00000200,01000000,0000.18,-000.06,-000.07,0000.58,0000.51,-000.11,0000.20,0000.05,0000.10,17.5,24.2,,00.0,0670.9,31.0
2021-10-10T01:19:00Z,00000200,01000000,-000.08,0000.15,0000.01,-000.00,0000.13,0000.03,-000.15,-000.08,0000.25,17.6,24.2,,00.0,0670.8,31.0
2021-10-10T01:20:00Z,00000200,01000000,0000.72,-000.08,0000.03,0000.32,0000.07,0000.22,-000.09,0000.21,-000.23,17.6,24.2,,00.0,0670.9,31.0
2021-10-10T01:21:00Z,00000200,01000000,0001.08,0000.40,-000.22,-000.10,0000.12,0000.01,0000.19,-000.47,0000.17,17.7,24.3,,00.0,0670.9,31.0
2021-10-10T01:22:00Z,00000200,01000000,0000.66,0000.24,0000.16,-000.20,0000.36,0000.04,-000.40,0000.11,-000.50,17.7,24.3,,00.0,0670.9,31.0
2021-10-10T01:23:00Z,00000200,01000000,0000.65,0000.06,-000.07,0000.06,-000.08,-000.29,0000.02,-000.32,-000.35,17.6,24.3,,00.0,0670.9,31.0
2021-10-10T01:24:00Z,00000200,01000000,0001.10,-000.02,0000.29,-000.23,0000.10,0000.20,0000.20,0000.18,0000.37,17.5,24.2,,00.0,0670.8,31.0
2021-10-10T01:25:00Z,00000200,01000000,0000.23,0000.18,0000.27,0000.79,-000.22,0000.48,-000.21,-000.22,0000.02,17.4,24.2,,00.0,0670.8,30.9
2021-10-10T01:26:00Z,00000200,01000000,0000.05,-000.16,0000.30,-000.09,0000.11,0000.10,-000.20,-000.20,-000.46,17.3,24.1,,00.0,0670.8,30.9
2021-10-10T01:27:00Z,00000200,01000000,0000.55,0000.30,0000.18,0000.08,-000.09,0000.27,-000.08,0000.21,0000.05,17.3,24.1,,00.0,0670.8,30.9
2021-10-10T01:28:00Z,00000200,01000000,0000.65,-000.46,0000.20,0000.39,0000.13,0000.23,0000.20,-000.24,0000.15,17.2,24.0,,00.0,0670.8,30.9
2021-10-10T01:29:00Z,00000200,01000000,0000.33,-000.11,0000.04,-000.12,-000.07,-000.17,-000.01,0000.58,0000.37,17.2,24.0,,00.0,0670.8,30.9
2021-10-10T01:30:00Z,00000200,01000000,0001.62,-000.12,-000.18,0000.31,-000.11,-000.49,-000.02,-000.49,-000.26,17.2,24.0,,00.0,0670.8,30.9
2021-10-10T01:31:00Z,00000200,01000000,0001.13,0000.12,-000.01,0000.36,0000.24,0000.02,0000.26,-000.05,0000.41,17.2,24.0,,00.0,0670.9,30.9
2021-10-10T01:32:00Z,00000200,01000000,0000.56,-000.01,-000.01,0000.44,-000.38,-000.11,0000.30,0000.54,-000.34,17.3,24.0,,00.0,0670.8,30.9
2021-10-10T01:33:00Z,00000200,01000000,0000.50,0000.37,-000.00,0000.61,0000.01,-000.18,-000.48,-000.08,0000.20,17.3,24.0,,00.0,0670.8,30.9
2021-10-10T01:34:00Z,00000200,01000000,0000.24,0000.13,-000.12,0000.03,-000.23,-000.16,0000.40,-000.09,0000.12,17.4,24.0,,00.0,0670.9,30.9
2021-10-10T01:35:00Z,00000200,01000000,0000.60,0000.04,-000.33,-000.22,0000.20,-000.06,-000.20,0000.20,0000.14,17.4,24.1,,00.0,0670.9,30.9
2021-10-10T01:36:00Z,00000200,01000000,0000.64,0000.03,-000.14,-000.41,0000.08,-000.03,0000.37,0000.06,0000.05,17.5,24.1,,00.0,0670.8,30.9
2021-10-10T01:37:00Z,00000200,01000000,0000.61,0000.09,-000.04,0000.55,-000.01,-000.06,0000.16,0000.43,-000.13,17.5,24.1,,00.0,0670.9,31.0
2021-10-10T01:38:00Z,00000200,01000000,0000.40,-000.11,-000.05,0000.23,-000.01,0000.34,-000.34,-000.43,-000.06,17.6,24.1,,00.0,0670.9,31.0
2021-10-10T01:39:00Z,00000200,01000000,0000.37,0000.09,-000.06,-000.15,0000.41,0000.03,-000.08,0000.21,0000.03,17.6,24.1,,00.0,0670.9,31.0
2021-10-10T01:40:00Z,00000200,01000000,0000.77,-000.21,-000.07,-000.04,0000.11,0000.23,-000.13,-000.09,0000.11,17.6,24.2,,00.0,0670.9,31.0
2021-10-10T01:41:00Z,00000200,01000000,0000.12,-000.20,0000.06,-000.33,0000.15,0000.09,-000.18,-000.09,-000.80,17.6,24.2,,00.0,0670.9,31.0
2021-10-10T01:42:00Z,00000200,01000000,0000.04,-000.30,-000.16,-000.03,0000.20,0000.13,0000.15,-000.28,0000.49,17.6,24.2,,00.0,0670.9,31.0
2021-10-10T01:43:00Z,00000200,01000000,-000.13,-000.19,0000.23,0000.15,0000.06,0000.26,-000.00,-000.06,0000.17,17.6,24.2,,00.0,0670.9,31.0
2021-10-10T01:44:00Z,00000200,01000000,0000.96,0000.51,0000.24,-000.37,0000.25,-000.09,-000.02,0000.07,-000.40,17.6,24.2,,00.0,0670.9,31.0
2021-10-10T01:45:00Z,00000200,01000000,0000.16,0000.11,-000.14,0000.09,0000.11,0000.09,-000.01,0000.06,0000.20,17.6,24.2,,00.0,0670.9,31.0
2021-10-10T01:46:00Z,00000200,01000000,0000.44,-000.05,0000.07,-000.37,0000.12,-000.03,0000.36,0000.39,0000.27,17.6,24.2,,00.0,0670.9,31.0
2021-10-10T01:47:00Z,00000200,01000000,0000.35,0000.19,-000.05,0000.04,0000.08,-000.21,-000.10,-000.08,0000.03,17.6,24.2,,00.0,0670.9,31.0
2021-10-10T01:48:00Z,00000200,01000000,0000.43,-000.06,-000.12,-000.62,0000.11,-000.27,-000.39,-000.20,-000.19,17.7,24.2,,00.0,0670.9,31.0
2021-10-10T01:49:00Z,00000200,01000000,0000.02,0000.36,-000.15,-000.28,0000.40,0000.02,0000.27,0000.60,-000.03,17.7,24.3,,00.0,0670.9,31.0
2021-10-10T01:50:00Z,00000200,01000000,0000.91,-000.19,-000.02,0000.60,0000.02,0000.24,-000.26,-000.41,-000.13,17.8,24.3,,00.0,0671.0,31.0
2021-10-10T01:51:00Z,00000200,01000000,-000.07,0000.26,0000.16,0000.06,-000.04,0000.13,0000.30,-000.28,-000.07,17.8,24.3,,00.0,0671.0,31.0
2021-10-10T01:52:00Z,00000200,01000000,-000.04,0000.12,0000.10,-000.05,-000.14,-000.07,-000.09,-000.25,0000.01,17.8,24.3,,00.0,0670.9,31.0
2021-10-10T01:53:00Z,00000200,01000000,0000.34,-000.09,-000.02,0000.52,0000.16,0000.30,-000.23,0000.40,-000.17,17.7,24.3,,00.0,0670.9,31.0
2021-10-10T01:54:00Z,00000200,01000000,0000.64,0000.12,0000.06,0000.16,-000.19,-000.03,-000.33,-000.39,-000.03,17.6,24.2,,00.0,0670.9,31.0
2021-10-10T01:55:00Z,00000200,01000000,0000.17,-000.07,0000.24,0000.19,-000.03,0000.18,-000.12,-000.25,-000.23,17.5,24.2,,00.0,0670.9,30.9
2021-10-10T01:56:00Z,00000200,01000000,0000.33,-000.29,-000.24,0000.40,-000.04,-000.20,-000.12,-000.44,-000.43,17.4,24.2,,00.0,0670.9,30.9
2021-10-10T01:57:00Z,00000200,41000000,,,,,,,0000.19,0000.29,0000.75,17.4,24.2,,00.0,0670.9,30.9
2021-10-10T01:58:00Z,00000200,61000000,,,,,,,-000.24,-000.13,-000.23,16.9,24.3,,00.0,0669.9,30.9
2021-10-10T01:59:00Z,00000200,21000000,,,,,,,0000.03,0000.35,0000.08,16.9,24.4,,00.0,0669.9,30.9
